Powrót do katalogu

STARLINK-6132

AktywnyŁącznośćVLEO
NORAD 57101·PAYLOAD·🇺🇸 United States

Wystrzelony Jun 23, 2023 z Cape Canaveral Space Force Station

Loading…

Następne Przeloty (najbliższe 24 godziny)

TLE

ŚwieżeSource: CelesTrak SupGP

Epoka: Sep 15, 2026, 02:50 UTC

1 57101C 23090A   26258.11854167  .00012029  00000+0  43567-3 0  2583
2 57101  43.0004 291.8339 0001370 258.3846  53.9276 15.27573902    13

Śledź STARLINK-6132 w czasie rzeczywistym z AllMySat

Download on the App Store